This is the latest recevied weather packets stored in our database for station/object W5GMO. If no packets are shown the sender has not sent any weather packets the latest 10 day(s).
| Time | Temp. | Humidity | Pressure | Rain* | Wind** | Luminosity | Snow |
|---|---|---|---|---|---|---|---|
| 1788020134 | 27.22° C | 1% | 1024.7 hPa | 0 mm | - | 732 W/m² | - |
| 1788019834 | 26.67° C | 1% | 1024.7 hPa | 0 mm | - | 726 W/m² | - |
| 1788019533 | 26.67° C | 1% | 1025 hPa | 0 mm | - | 709 W/m² | - |
| 1788019233 | 26.67° C | 1% | 1025.1 hPa | 0 mm | - | 716 W/m² | - |
| 1788018931 | 26.67° C | 1% | 1025 hPa | 0 mm | - | 713 W/m² | - |
| 1788018627 | 26.67° C | 1% | 1025 hPa | 0 mm | - | 704 W/m² | - |
| 1788018326 | 27.22° C | 1% | 1025 hPa | 0 mm | - | 699 W/m² | - |
| 1788018021 | 26.11° C | 1% | 1025.1 hPa | 0 mm | - | 686 W/m² | - |
| 1788017718 | 26.11° C | 1% | 1024.9 hPa | 0 mm | - | 683 W/m² | - |
| 1788017414 | 26.11° C | 1% | 1024.8 hPa | 0 mm | - | 675 W/m² | - |
| 1788017111 | 26.11° C | 1% | 1025 hPa | 0 mm | - | 665 W/m² | - |
| 1788016809 | 26.11° C | 1% | 1025 hPa | 0 mm | - | 654 W/m² | - |
| 1788016511 | 26.11° C | 1% | 1024.7 hPa | 0 mm | - | 649 W/m² | - |
| 1788016203 | 25.56° C | 1% | 1024.7 hPa | 0 mm | - | 640 W/m² | - |
| 1788015909 | 25.56° C | 1% | 1024.5 hPa | 0 mm | - | 630 W/m² | - |
| 1788015602 | 26.11° C | 1% | 1024.6 hPa | 0 mm | - | 619 W/m² | - |
| 1788015297 | 25° C | 1% | 1024.6 hPa | 0 mm | - | 610 W/m² | - |
| 1788014996 | 25° C | 1% | 1024.6 hPa | 0 mm | - | 600 W/m² | - |
| 1788014695 | 25° C | 1% | 1024.6 hPa | 0 mm | - | 588 W/m² | - |
| 1788014390 | 24.44° C | 1% | 1024.6 hPa | 0 mm | - | 578 W/m² | - |
| 1788014086 | 24.44° C | 1% | 1024.3 hPa | 0 mm | - | 567 W/m² | - |
| 1788013784 | 24.44° C | 1% | 1024.6 hPa | 0 mm | - | 560 W/m² | - |
| 1788013479 | 24.44° C | 1% | 1024.5 hPa | 0 mm | - | 547 W/m² | - |
| 1788013179 | 24.44° C | 1% | 1024.7 hPa | 0 mm | - | 536 W/m² | - |
| 1788012878 | 23.89° C | 1% | 1024.4 hPa | 0 mm | - | 525 W/m² | - |
* Rain latest hour (hover to see other rain measurements)
** Current wind speed in m/s (hover to see current wind gust speed)